Regional Weather Roundup
Issued by NWS

Home | Current Version | Previous Version | Text Only | Print | Product List | Glossary Off
Versions: 1 2 3 4 5 6 7 8 9 10 11 12 13 14 15 16 17 18 19 20 21 22 23 24 25 26 27 28 29 30 31 32 33 34 35 36 37 38 39 40 41 42 43 44 45 46 47 48 49 50

000
ASUS43 KLOT 311600
RWRIL

ILLINOIS REGIONAL WEATHER ROUNDUP
NATIONAL WEATHER SERVICE CHICAGO/ROMEOVILLE IL
1000 AM CST SAT JAN 31 2015

NOTE: "FAIR" INDICATES FEW OR NO CLOUDS BELOW 12,000 FEET WITH NO
SIGNIFICANT WEATHER AND/OR OBSTRUCTIONS TO VISIBILITY.

* THESE STATIONS ARE NOT UNDER NWS QUALITY CONTROL. THEY ALSO MAY NOT
  REPORT WEATHER SUCH AS PRECIPITATION OR FOG.

ILZ001-002-007-009-015-016-024-311700-
NORTHWEST ILLINOIS

CITY           SKY/WX    TMP DP  RH WIND       PRES   REMARKS
MOLINE         CLOUDY    35  26  69 SW8       30.23R WCI  29
STERLING*      PTSUNNY   34  25  69 W7        30.23R WCI  28
$$

ILZ003-004-008-010-011-017-018-311700-
NORTH CENTRAL ILLINOIS

CITY           SKY/WX    TMP DP  RH WIND       PRES   REMARKS
ROCKFORD       PTSUNNY   31  21  66 SW7       30.22F WCI  24
$$

ILZ005-006-012>014-019>023-311700-
NORTHEAST ILLINOIS

CITY           SKY/WX    TMP DP  RH WIND       PRES   REMARKS
CHICAGO-OHARE  PTSUNNY   31  20  63 SW12      30.21F WCI  22
CHICAGO-MIDWAY PTSUNNY   34  22  61 SW9       30.23F WCI  27
AURORA         PTSUNNY   32  22  66 SW9       30.23S WCI  24
WAUKEGAN       SUNNY     31  19  61 SW12      30.19F WCI  22
DUPAGE AIRPORT MOSUNNY   31  21  66 SW13      30.21F WCI  21
WHEELING       MOSUNNY   31  19  61 SW10      30.23F WCI  22
NORTHERLY ISL    N/A     33  21  61 SW7         N/A  WCI  27
$$

LMZ740>746-311700-
SOUTHERN LAKE MICHIGAN

STATION/POSITION SKY/WX   TEMP    WIND        PRES    VSBY  WAVE
                          AIR SEA DIR/SP/G                  HT/PER
                          (F)     (DEG/KT/KT) (MB)    (MI)  (FT/S)
WAUKEGAN HARBOR            31     260/ 14/ 19   N/A
HARRISON CRIB              30     240/ 18/ 21   N/A
BURNHAM HARBOR             32     200/  7/ 12   N/A
CALUMET HARBOR             32     220/  9/ 13   N/A
MICHIGAN CITY              29     190/ 14/ 16   N/A
$$

ILZ025>027-034>036-040-047-049-050-058-095>099-311700-
WEST-CENTRAL ILLINOIS

CITY           SKY/WX    TMP DP  RH WIND       PRES   REMARKS
QUINCY         CLOUDY    35  23  61 SW8       30.28R WCI  29
$$

ILZ028>032-037-038-041>044-048-051>054-059>061-311700-
CENTRAL ILLINOIS

CITY           SKY/WX    TMP DP  RH WIND       PRES   REMARKS
DECATUR        CLOUDY    34  26  72 SW10      30.31F WCI  26
PEORIA         CLOUDY    34  24  67 SW8       30.27S WCI  27
SPRINGFIELD    CLOUDY    36  26  67 SW5       30.30F WCI  32
TAYLORVILLE    NOT AVBL
$$

ILZ033-039-045-046-055>057-062-063-311700-
EAST-CENTRAL ILLINOIS

CITY           SKY/WX    TMP DP  RH WIND       PRES   REMARKS
CHAMPAIGN      CLOUDY    33  26  75 SW13      30.30F WCI  24
MATTOON        CLOUDY    33  23  66 S12       30.32S WCI  24
$$

ILZ079-100>102-311700-
SOUTHWEST ILLINOIS

CITY           SKY/WX    TMP DP  RH WIND       PRES   REMARKS
ALTON          CLOUDY    34  27  75 S7        30.34S WCI  28
BELLEVILLE     CLOUDY    35  27  74 S6        30.35S WCI  30
CAHOKIA*       CLOUDY    38  27  64 CALM      30.34F
$$

ILZ064>066-069>071-074>076-080>082-084>086-088>090-092>094-311700-
SOUTH-CENTRAL ILLINOIS

CITY           SKY/WX    TMP DP  RH WIND       PRES   REMARKS
CARBONDALE     CLOUDY    36  25  64 S8        30.38F WCI  30
MARION         CLOUDY    37  27  65 S8        30.39F WCI  31
MT. VERNON     CLOUDY    36  27  69 SW6       30.37F WCI  31
$$

ILZ067-068-072-073-078-083-087-091-311700-
SOUTHEAST ILLINOIS

CITY           SKY/WX    TMP DP  RH WIND       PRES   REMARKS
LAWRENCEVILLE  CLOUDY    34  26  72 SW12      30.39S WCI  25
$$

ABBREVIATIONS USED IN REMARKS
   TC - TEMPERATURE IN CELSIUS
  WCI - WIND CHILL INDEX
   HX - HEAT INDEX
  VSB - VISIBILITY
$$




USA.gov is the U.S. government's official web portal to all federal, state and local government web resources and services.